Zurück zum Katalog

STARLINK-37341

AktivKommunikationVLEO
NORAD 69509·PAYLOAD·🇺🇸 United States

Gestartet Jun 12, 2026 von Cape Canaveral Space Force Station

Loading…

Nächste Überflüge (nächste 24 Stunden)

TLE

AktuellSource: CelesTrak SupGP

Epoche: Sep 15, 2026, 03:59 UTC

1 69509C 26133B   26258.16645833 -.00061838  00000+0 -18258-2 0  2584
2 69509  53.1570 254.9325 0001668  78.5182 204.6371 15.34441132    16

Verfolge STARLINK-37341 in Echtzeit mit AllMySat

Download on the App Store